CW6981 Weather Reports


Display with metric or nautical units.
time (UTC)temp
F
wind
direction
speed
MPH
gust
MPH
rain 1hr
in
rain 24hr
in
rain mn
in
humidity
%
barometer
mb
20220517002525 76 83 0.0 1.0 0.00 0.00 0.00 29 1013.1
20220517002027 76 82 0.0 1.0 0.00 0.00 0.00 31 1013.1
20220517001536 76 83 0.0 1.0 0.00 0.00 0.00 29 1013.2
20220517001031 76 75 0.0 1.0 0.00 0.00 0.00 32 1013.3
20220517000544 76 75 0.0 1.0 0.00 0.00 0.00 29 1013.3
20220517000040 77 75 0.0 1.0 0.00 0.00 0.00 26 1013.3
20220516235531 77 74 0.0 2.0 0.00 0.00 0.00 26 1013.4
20220516235046 77 75 0.0 2.0 0.00 0.00 0.00 29 1013.4
20220516234526 77 96 0.0 1.0 0.00 0.00 0.00 31 1013.5
20220516234035 76 96 0.0 1.0 0.00 0.00 0.00 29 1013.5
20220516233529 77 100 0.0 1.0 0.00 0.00 0.00 26 1013.5
20220516233029 77 119 0.0 1.0 0.00 0.00 0.00 27 1013.5
20220516232540 77 50 0.0 2.0 0.00 0.00 0.00 29 1013.6
20220516232037 76 49 0.0 2.0 0.00 0.00 0.00 27 1013.5
20220516231536 77 322 0.0 3.0 0.00 0.00 0.00 26 1013.5
20220516231025 77 251 0.0 4.0 0.00 0.00 0.00 26 1013.7
20220516230540 77 239 1.0 4.0 0.00 0.00 0.00 26 1013.8
20220516230038 77 322 0.0 2.0 0.00 0.00 0.00 27 1013.8
20220516225532 77 312 1.0 2.0 0.00 0.00 0.00 27 1013.7
20220516225047 77 295 1.0 2.0 0.00 0.00 0.00 27 1013.7
20220516224544 77 356 1.0 2.0 0.00 0.00 0.00 26 1013.7
20220516224023 78 77 1.0 2.0 0.00 0.00 0.00 27 1013.5
20220516223540 78 29 1.0 2.0 0.00 0.00 0.00 25 1013.5
20220516223038 78 65 1.0 2.0 0.00 0.00 0.00 23 1013.4
20220516222532 76 297 1.0 3.0 0.00 0.00 0.00 26 1013.5
20220516222025 76 291 1.0 3.0 0.00 0.00 0.00 28 1013.4
20220516221528 77 227 1.0 3.0 0.00 0.00 0.00 26 1013.7
20220516221030 76 134 1.0 3.0 0.00 0.00 0.00 25 1013.8
20220516220545 76 245 1.0 3.0 0.00 0.00 0.00 26 1013.8
20220516220039 76 243 0.0 2.0 0.00 0.00 0.00 26 1014.1
20220516215532 77 243 0.0 2.0 0.00 0.00 0.00 25 1014.2
20220516215030 77 243 0.0 4.0 0.00 0.00 0.00 23 1014.3
20220516214541 77 243 1.0 4.0 0.00 0.00 0.00 24 1014.3
20220516214030 78 21 1.0 2.0 0.00 0.00 0.00 24 1014.6
20220516213528 77 289 1.0 2.0 0.00 0.00 0.00 23 1014.6
20220516213037 77 144 0.0 1.0 0.00 0.00 0.00 24 1014.6
20220516212526 77 139 0.0 1.0 0.00 0.00 0.00 26 1014.5
20220516212030 78 139 0.0 1.0 0.00 0.00 0.00 25 1014.6
20220516211540 78 135 0.0 2.0 0.00 0.00 0.00 23 1014.5
20220516211030 78 131 1.0 2.0 0.00 0.00 0.00 20 1014.4
20220516210529 78 150 1.0 6.0 0.00 0.00 0.00 23 1014.3
20220516210039 77 108 1.0 6.0 0.00 0.00 0.00 24 1014.3
20220516205528 76 114 3.0 6.0 0.00 0.00 0.00 23 1014.4
20220516205027 77 281 2.0 6.0 0.00 0.00 0.00 26 1014.7
20220516204538 77 294 3.0 6.0 0.00 0.00 0.00 24 1015.2
20220516204051 78 271 2.0 6.0 0.00 0.00 0.00 22 1015.5
20220516203552 78 245 3.0 6.0 0.00 0.00 0.00 20 1015.3
20220516203044 79 272 2.0 5.0 0.00 0.00 0.00 20 1014.6
20220516202534 81 302 2.0 5.0 0.00 0.00 0.00 18 1014.6
20220516202037 80 261 1.0 3.0 0.00 0.00 0.00 17 1014.1
20220516201527 80 183 1.0 2.0 0.00 0.00 0.00 20 1013.9
20220516201045 79 215 0.0 4.0 0.00 0.00 0.00 20 1013.8
20220516200545 79 98 1.0 4.0 0.00 0.00 0.00 20 1013.4
20220516200040 80 69 1.0 7.0 0.00 0.00 0.00 22 1013.6
20220516195530 79 68 1.0 7.0 0.00 0.00 0.00 20 1013.6
20220516195040 79 165 3.0 7.0 0.00 0.00 0.00 19 1013.5
20220516194529 79 171 0.0 5.0 0.00 0.00 0.00 24 1013.8
20220516194027 79 210 1.0 5.0 0.00 0.00 0.00 32 1013.9
20220516193540 78 131 0.0 1.0 0.00 0.00 0.00 30 1013.9
20220516193031 79 131 0.0 1.0 0.00 0.00 0.00 26 1013.9
20220516192526 79 131 0.0 0.0 0.00 0.00 0.00 24 1014.1
20220516192042 80 131 0.0 1.0 0.00 0.00 0.00 22 1014.2
20220516191535 80 131 0.0 1.0 0.00 0.00 0.00 21 1014.2
20220516191040 80 131 0.0 2.0 0.00 0.00 0.00 20 1014.2
20220516190534 80 132 1.0 2.0 0.00 0.00 0.00 22 1014.3
20220516190045 80 85 1.0 5.0 0.00 0.00 0.00 21 1014.3
20220516185527 80 106 2.0 5.0 0.00 0.00 0.00 20 1014.4
20220516185042 81 114 1.0 5.0 0.00 0.00 0.00 24 1014.4
20220516184532 81 258 1.0 4.0 0.00 0.00 0.00 21 1014.5
20220516184034 81 88 2.0 4.0 0.00 0.00 0.00 22 1014.5
20220516183528 82 351 0.0 3.0 0.00 0.00 0.00 18 1014.5
20220516183042 82 92 1.0 5.0 0.00 0.00 0.00 23 1014.6
20220516182544 81 89 2.0 5.0 0.00 0.00 0.00 21 1014.7
20220516182040 81 77 2.0 4.0 0.00 0.00 0.00 22 1014.7
20220516181531 81 91 1.0 4.0 0.00 0.00 0.00 23 1014.8
20220516181030 81 92 1.0 4.0 0.00 0.00 0.00 22 1014.9
20220516180545 80 94 1.0 4.0 0.00 0.00 0.00 26 1014.9
20220516180037 79 101 0.0 3.0 0.00 0.00 0.00 26 1014.9
20220516175541 80 103 1.0 3.0 0.00 0.00 0.00 27 1015.0
20220516175025 79 73 0.0 5.0 0.00 0.00 0.00 29 1015.1
20220516174522 79 78 1.0 5.0 0.00 0.00 0.00 27 1015.2
20220516174040 79 99 2.0 4.0 0.00 0.00 0.00 27 1015.2
20220516173535 79 82 1.0 2.0 0.00 0.00 0.00 25 1015.2
20220516173033 78 82 0.0 4.0 0.00 0.00 0.00 30 1015.3
20220516172529 78 114 2.0 4.0 0.00 0.00 0.00 29 1015.4
20220516172044 77 96 0.0 2.0 0.00 0.00 0.00 28 1015.5
20220516171526 76 96 0.0 3.0 0.00 0.00 0.00 30 1015.6
20220516171038 76 96 0.0 3.0 0.00 0.00 0.00 33 1015.6
20220516170534 76 79 0.0 1.0 0.00 0.00 0.00 33 1015.7
20220516170032 75 79 0.0 1.0 0.00 0.00 0.00 32 1015.7
20220516165526 74 79 0.0 2.0 0.00 0.00 0.00 32 1015.8
20220516165042 74 79 0.0 3.0 0.00 0.00 0.00 31 1015.9
20220516164542 74 79 1.0 3.0 0.00 0.00 0.00 32 1016.0
20220516164035 74 80 0.0 3.0 0.00 0.00 0.00 31 1016.0
20220516163549 74 79 0.0 2.0 0.00 0.00 0.00 31 1016.1
20220516163043 73 79 0.0 2.0 0.00 0.00 0.00 34 1016.2
20220516162534 72 76 0.0 2.0 0.00 0.00 0.00 35 1016.3
20220516162049 72 76 1.0 2.0 0.00 0.00 0.00 35 1016.4
20220516161546 72 76 0.0 1.0 0.00 0.00 0.00 37 1016.4
20220516161039 70 76 0.0 1.0 0.00 0.00 0.00 36 1016.5
20220516160531 70 76 0.0 2.0 0.00 0.00 0.00 39 1016.6
20220516160028 69 76 0.0 2.0 0.00 0.00 0.00 40 1016.6
20220516155540 69 76 0.0 2.0 0.00 0.00 0.00 40 1016.7
20220516155034 69 76 0.0 2.0 0.00 0.00 0.00 38 1016.8
20220516154529 69 76 1.0 2.0 0.00 0.00 0.00 42 1016.9
20220516154028 68 76 0.0 2.0 0.00 0.00 0.00 41 1017.0
20220516153545 67 76 1.0 2.0 0.00 0.00 0.00 45 1017.0
20220516153035 66 76 0.0 1.0 0.00 0.00 0.00 44 1017.0
20220516152545 66 76 0.0 1.0 0.00 0.00 0.00 44 1017.1
20220516152045 66 76 0.0 1.0 0.00 0.00 0.00 45 1017.1
20220516151535 65 76 0.0 1.0 0.00 0.00 0.00 44 1017.2
20220516151029 64 76 0.0 2.0 0.00 0.00 0.00 45 1017.2
20220516150528 62 76 1.0 4.0 0.00 0.00 0.00 51 1017.2
20220516150037 61 76 1.0 4.0 0.00 0.00 0.00 52 1017.3
20220516145532 61 104 0.0 4.0 0.00 0.00 0.00 53 1017.3
20220516145032 60 92 1.0 4.0 0.00 0.00 0.00 55 1017.3
20220516144541 60 139 0.0 1.0 0.00 0.00 0.00 55 1017.4
20220516144035 59 139 0.0 1.0 0.00 0.00 0.00 55 1017.4
20220516143534 59 139 0.0 2.0 0.00 0.00 0.00 56 1017.4
20220516143025 58 139 1.0 2.0 0.00 0.00 0.00 57 1017.4
20220516142539 57 139 1.0 2.0 0.00 0.00 0.00 57 1017.5
20220516142039 57 228 0.0 2.0 0.00 0.00 0.00 56 1017.6
20220516141528 56 229 0.0 2.0 0.00 0.00 0.00 60 1017.5
20220516141040 55 238 0.0 1.0 0.00 0.00 0.00 64 1017.5
20220516140541 55 238 1.0 1.0 0.00 0.00 0.00 67 1017.5
20220516140036 55 238 0.0 1.0 0.00 0.00 0.00 69 1017.6
20220516135531 54 238 0.0 1.0 0.00 0.00 0.00 72 1017.7
20220516135034 54 238 0.0 0.0 0.00 0.00 0.00 74 1017.6
20220516134526 54 238 0.0 1.0 0.00 0.00 0.00 74 1017.7
20220516134040 53 238 0.0 1.0 0.00 0.00 0.00 74 1017.8
20220516133543 53 238 0.0 0.0 0.00 0.00 0.00 74 1017.9
20220516133034 53 238 0.0 0.0 0.00 0.00 0.00 74 1017.9
20220516132528 52 238 0.0 0.0 0.00 0.00 0.00 75 1017.9
20220516132044 52 238 0.0 0.0 0.00 0.00 0.00 75 1017.9
20220516131536 51 238 0.0 1.0 0.00 0.00 0.00 77 1017.9
20220516131030 51 238 0.0 1.0 0.00 0.00 0.00 77 1017.8
20220516130527 50 238 0.0 1.0 0.00 0.00 0.00 79 1017.9
20220516130038 49 238 0.0 0.0 0.00 0.00 0.00 79 1017.9
20220516125529 49 238 0.0 0.0 0.00 0.00 0.00 77 1018.0
20220516125031 48 238 0.0 0.0 0.00 0.00 0.00 77 1018.0
20220516124542 48 238 0.0 0.0 0.00 0.00 0.00 78 1017.9
20220516124036 48 238 0.0 0.0 0.00 0.00 0.00 78 1017.9
20220516123535 47 238 0.0 0.0 0.00 0.00 0.00 77 1017.9
20220516123034 47 238 0.0 0.0 0.00 0.00 0.00 76 1017.9
20220516122528 47 238 0.0 0.0 0.00 0.00 0.00 75 1018.0
20220516122045 47 238 0.0 0.0 0.00 0.00 0.00 74 1018.0
20220516121535 47 238 0.0 0.0 0.00 0.00 0.00 73 1018.0
20220516121032 47 238 0.0 0.0 0.00 0.00 0.00 73 1018.0
20220516120529 47 238 0.0 0.0 0.00 0.00 0.00 73 1017.9
20220516120041 47 238 0.0 0.0 0.00 0.00 0.00 73 1017.9
20220516115543 47 238 0.0 1.0 0.00 0.00 0.00 73 1018.0
20220516115039 47 238 0.0 1.0 0.00 0.00 0.00 73 1017.9
20220516114532 47 238 0.0 0.0 0.00 0.00 0.00 73 1017.9
20220516114031 47 238 0.0 0.0 0.00 0.00 0.00 72 1017.9
20220516113526 47 238 0.0 0.0 0.00 0.00 0.00 72 1017.8
20220516113039 48 238 0.0 0.0 0.00 0.00 0.00 73 1017.7
20220516112534 48 238 0.0 1.0 0.00 0.00 0.00 72 1017.8
20220516112026 48 238 0.0 1.0 0.00 0.00 0.00 72 1017.7
20220516111535 48 238 0.0 1.0 0.00 0.00 0.00 71 1017.8
20220516111032 48 238 0.0 0.0 0.00 0.00 0.00 72 1018.0
20220516110544 48 238 0.0 0.0 0.00 0.00 0.00 70 1017.8
20220516110033 48 238 0.0 0.0 0.00 0.00 0.00 71 1017.8
20220516105534 48 238 0.0 0.0 0.00 0.00 0.00 70 1017.9
20220516105033 48 238 0.0 0.0 0.00 0.00 0.00 71 1017.9
20220516104526 48 238 0.0 0.0 0.00 0.00 0.00 70 1018.0
20220516104026 48 238 0.0 0.0 0.00 0.00 0.00 69 1017.9
20220516103524 48 238 0.0 0.0 0.00 0.00 0.00 69 1018.0
20220516103035 49 238 0.0 1.0 0.00 0.00 0.00 70 1018.1
20220516102529 49 238 0.0 1.0 0.00 0.00 0.00 71 1018.0
20220516102031 49 238 0.0 1.0 0.00 0.00 0.00 69 1018.0
20220516101523 49 238 0.0 0.0 0.00 0.00 0.00 70 1018.0
20220516101036 49 238 0.0 0.0 0.00 0.00 0.00 69 1018.0
20220516100530 49 238 0.0 0.0 0.00 0.00 0.00 67 1017.9
20220516100027 50 238 0.0 0.0 0.00 0.00 0.00 66 1017.9
20220516095538 50 238 0.0 0.0 0.00 0.00 0.00 65 1017.9
20220516095031 50 238 0.0 0.0 0.00 0.00 0.00 65 1017.9
20220516094528 50 238 0.0 0.0 0.00 0.00 0.00 65 1017.9
20220516094037 50 238 0.0 0.0 0.00 0.00 0.00 65 1017.9
20220516093530 50 238 0.0 0.0 0.00 0.00 0.00 65 1017.9
20220516093027 51 238 0.0 0.0 0.00 0.00 0.00 65 1017.9
20220516092538 51 238 0.0 0.0 0.00 0.00 0.00 64 1018.0
20220516092030 51 238 0.0 0.0 0.00 0.00 0.00 65 1018.1
20220516091524 51 238 0.0 0.0 0.00 0.00 0.00 65 1018.1
20220516091037 51 238 0.0 0.0 0.00 0.00 0.00 65 1018.1
20220516090529 51 238 0.0 0.0 0.00 0.00 0.00 65 1018.2
20220516090026 52 238 0.0 0.0 0.00 0.00 0.00 64 1018.2
20220516085540 52 238 0.0 0.0 0.00 0.00 0.00 64 1018.3
20220516085039 52 238 0.0 0.0 0.00 0.00 0.00 62 1018.3
20220516084536 52 238 0.0 0.0 0.00 0.00 0.00 62 1018.3
20220516084033 52 238 0.0 0.0 0.00 0.00 0.00 62 1018.4
20220516083531 52 238 0.0 0.0 0.00 0.00 0.00 62 1018.5
20220516083027 53 238 0.0 0.0 0.00 0.00 0.00 62 1018.5
20220516082541 53 238 0.0 0.0 0.00 0.00 0.00 62 1018.5
20220516082039 53 238 0.0 0.0 0.00 0.00 0.00 62 1018.6
20220516081534 53 238 0.0 0.0 0.00 0.00 0.00 61 1018.7
20220516081033 54 238 0.0 0.0 0.00 0.00 0.00 61 1018.7
20220516080531 54 238 0.0 0.0 0.00 0.00 0.00 59 1018.8
20220516080043 54 238 0.0 0.0 0.00 0.00 0.00 59 1018.8
20220516075537 54 238 0.0 0.0 0.00 0.00 0.00 59 1018.9
20220516075040 54 238 0.0 0.0 0.00 0.00 0.00 59 1018.9
20220516074536 55 238 0.0 0.0 0.00 0.00 0.00 59 1018.9
20220516074029 55 238 0.0 0.0 0.00 0.00 0.00 58 1018.9
20220516073533 55 238 0.0 0.0 0.00 0.00 0.00 58 1019.0
20220516073025 55 238 0.0 0.0 0.00 0.00 0.00 57 1019.1
20220516072523 56 238 0.0 0.0 0.00 0.00 0.00 58 1019.2
20220516072030 56 238 0.0 0.0 0.00 0.00 0.00 57 1019.2
20220516071543 56 238 0.0 0.0 0.00 0.00 0.00 56 1019.3
20220516071036 56 238 0.0 0.0 0.00 0.00 0.00 56 1019.4
20220516070537 57 238 0.0 0.0 0.00 0.00 0.00 55 1019.4
20220516070031 57 238 0.0 0.0 0.00 0.00 0.00 54 1019.5
20220516065526 57 238 0.0 0.0 0.00 0.00 0.00 53 1019.5
20220516065028 57 238 0.0 0.0 0.00 0.00 0.00 53 1019.6
20220516064542 57 238 0.0 0.0 0.00 0.00 0.00 54 1019.7
20220516064036 58 238 0.0 0.0 0.00 0.00 0.00 53 1019.7
20220516063537 58 238 0.0 1.0 0.00 0.00 0.00 53 1019.7
20220516063035 58 238 0.0 1.0 0.00 0.00 0.00 52 1019.7
20220516062529 59 238 0.0 0.0 0.00 0.00 0.00 52 1019.8
20220516062030 59 238 0.0 0.0 0.00 0.00 0.00 50 1019.9
20220516061540 60 238 0.0 0.0 0.00 0.00 0.00 50 1019.9
20220516061031 60 238 0.0 1.0 0.00 0.00 0.00 49 1019.9
20220516060530 60 238 0.0 1.0 0.00 0.00 0.00 49 1019.9
20220516060041 61 238 0.0 1.0 0.00 0.00 0.00 47 1020.0
20220516055531 61 238 0.0 0.0 0.00 0.00 0.00 46 1020.0
20220516055030 62 238 0.0 0.0 0.00 0.00 0.00 45 1020.0
20220516054543 62 238 0.0 1.0 0.00 0.00 0.00 45 1020.1
20220516054024 62 238 0.0 1.0 0.00 0.00 0.00 44 1020.1
20220516053544 63 238 0.0 0.0 0.00 0.00 0.00 43 1020.2
20220516053035 63 238 0.0 0.0 0.00 0.00 0.00 43 1020.2
20220516052535 64 238 0.0 0.0 0.00 0.00 0.00 42 1020.2
20220516052035 64 238 0.0 0.0 0.00 0.00 0.00 41 1020.2
20220516051529 64 238 0.0 0.0 0.00 0.00 0.00 40 1020.2
20220516051033 64 238 0.0 1.0 0.00 0.00 0.00 40 1020.3
20220516050529 65 238 0.0 1.0 0.00 0.00 0.00 39 1020.3
20220516050042 65 238 0.0 0.0 0.00 0.00 0.00 39 1020.2
20220516045541 65 238 0.0 0.0 0.00 0.00 0.00 38 1020.3
20220516045033 65 238 0.0 0.0 0.00 0.00 0.00 38 1020.2
20220516044545 65 238 0.0 1.0 0.00 0.00 0.00 38 1020.2
20220516044043 66 238 0.0 1.0 0.00 0.00 0.00 38 1020.2
20220516043543 66 238 0.0 1.0 0.00 0.00 0.00 38 1020.1
20220516043042 66 238 0.0 1.0 0.00 0.00 0.00 37 1020.2
20220516042532 66 238 0.0 1.0 0.00 0.00 0.00 37 1020.2
20220516042030 66 238 0.0 1.0 0.00 0.00 0.00 36 1020.2
20220516041548 67 238 0.0 2.0 0.00 0.00 0.00 36 1020.1
20220516041036 67 252 0.0 3.0 0.00 0.00 0.00 35 1020.1
20220516040539 67 274 0.0 3.0 0.00 0.00 0.00 36 1020.0
20220516040036 67 275 1.0 2.0 0.00 0.00 0.00 35 1020.1
20220516035534 68 277 0.0 2.0 0.00 0.00 0.00 35 1020.1
20220516035036 68 278 0.0 2.0 0.00 0.00 0.00 36 1020.0
20220516034527 68 206 1.0 2.0 0.00 0.00 0.00 35 1020.0
20220516034044 68 262 1.0 2.0 0.00 0.00 0.00 35 1020.0
20220516033537 68 262 0.0 3.0 0.00 0.00 0.00 35 1019.9
20220516033033 69 259 2.0 3.0 0.00 0.00 0.00 34 1019.8
20220516032526 69 272 1.0 3.0 0.00 0.00 0.00 34 1019.8
20220516032042 69 279 1.0 3.0 0.00 0.00 0.00 34 1019.8
20220516031536 69 226 1.0 2.0 0.00 0.00 0.00 34 1019.7
20220516031028 69 252 1.0 2.0 0.00 0.00 0.00 33 1019.7
20220516030543 70 255 1.0 2.0 0.00 0.00 0.00 33 1019.6
20220516030035 70 306 1.0 2.0 0.00 0.00 0.00 33 1019.5
20220516025528 70 101 1.0 1.0 0.00 0.00 0.00 33 1019.4
20220516025040 70 154 0.0 1.0 0.00 0.00 0.00 35 1019.5
20220516024536 70 154 0.0 3.0 0.00 0.00 0.00 34 1019.4
20220516024032 71 154 1.0 3.0 0.00 0.00 0.00 33 1019.4
20220516023546 71 111 1.0 4.0 0.00 0.00 0.00 33 1019.4
20220516023042 71 109 1.0 4.0 0.00 0.00 0.00 32 1019.4
20220516022534 72 117 1.0 2.0 0.00 0.00 0.00 32 1019.3
20220516022044 72 110 0.0 2.0 0.00 0.00 0.00 32 1019.3
20220516021540 72 110 1.0 2.0 0.00 0.00 0.00 31 1019.4
20220516021036 73 112 0.0 2.0 0.00 0.00 0.00 32 1019.5
20220516020532 73 110 0.0 1.0 0.00 0.00 0.00 31 1019.3
20220516020027 73 110 0.0 2.0 0.00 0.00 0.00 31 1019.2
20220516015542 73 110 0.0 2.0 0.00 0.00 0.00 31 1019.2
20220516015037 73 104 1.0 2.0 0.00 0.00 0.00 30 1019.2
20220516014530 74 98 0.0 0.0 0.00 0.00 0.00 30 1019.2
20220516014044 74 98 0.0 2.0 0.00 0.00 0.00 30 1019.1
20220516013526 74 98 1.0 2.0 0.00 0.00 0.00 30 1019.0
20220516013042 74 97 1.0 2.0 0.00 0.00 0.00 30 1019.1
20220516012537 74 96 1.0 3.0 0.00 0.00 0.00 30 1019.1
20220516012038 74 67 1.0 3.0 0.00 0.00 0.00 30 1018.9
20220516011530 75 91 1.0 2.0 0.00 0.00 0.00 30 1018.9
20220516011044 75 91 0.0 5.0 0.00 0.00 0.00 30 1018.8
20220516010546 75 91 2.0 6.0 0.00 0.00 0.00 29 1018.8
20220516010026 75 100 1.0 6.0 0.00 0.00 0.00 29 1018.6
20220516005541 74 108 0.0 4.0 0.00 0.00 0.00 30 1018.6
20220516005038 74 95 0.0 4.0 0.00 0.00 0.00 30 1018.8
20220516004530 74 94 1.0 2.0 0.00 0.00 0.00 30 1018.9
20220516004043 74 168 0.0 2.0 0.00 0.00 0.00 30 1018.8
20220516003527 75 168 0.0 1.0 0.00 0.00 0.00 29 1018.7
20220516003028 75 168 0.0 2.0 0.00 0.00 0.00 30 1018.6
20220516002542 75 169 1.0 4.0 0.00 0.00 0.00 29 1018.6